Volver al catálogo

COSMOS 764

ActivoMilitarLEO
NORAD 8288·PAYLOAD·🇷🇺 Russia

Lanzado Sep 17, 1975 desde Plesetsk Cosmodrome

Loading…

Próximos Pases (próximas 24 horas)

TLE

ActualizadoSource: Space-Track

Época: Sep 14, 2026, 09:24 UTC

1 08288U 75086D   26257.39178427 -.00000024  00000-0 -66703-4 0  9999
2 08288  74.0072 225.4241 0029357 123.4666 310.9517 12.41091762310319

Sigue COSMOS 764 en tiempo real con AllMySat

Download on the App Store